Location: Unspecified
(28.9957°N, 0.0000°E)
Time: 06:02:57
(UTC+00:00)

Sep Motor Cover - Visible Passes

Search period start: 04 April 2026 00:00
Search period end: 14 April 2026 00:00
Orbit: 643 x 915 km, 97.8° (Epoch: 29 March)

Date Brightness Start Highest point End Pass type
(mag) Time Alt. Az. Time Alt. Az. Time Alt. Az.
4 Apr ? 03:29:53 10° SE 03:33:51 32° ENE 03:37:48 10° N visible
4 Apr ? 05:10:48 10° SW 05:13:15 15° W 05:15:42 10° WNW visible
5 Apr ? 02:59:06 10° E 03:01:20 14° ENE 03:03:33 10° NE visible
5 Apr ? 04:36:16 10° SSW 04:40:21 35° W 04:44:25 10° NNW visible
6 Apr ? 04:03:06 10° SSE 04:07:33 88° ENE 04:11:59 10° N visible
7 Apr ? 03:30:53 10° SE 03:34:52 34° ENE 03:38:52 10° N visible
7 Apr ? 05:12:04 10° SW 05:14:18 14° W 05:16:32 10° WNW visible
8 Apr ? 02:59:56 10° ESE 03:02:20 15° ENE 03:04:45 10° NE visible
8 Apr ? 04:37:22 10° SSW 04:41:23 33° W 04:45:23 10° NNW visible
9 Apr ? 04:04:08 10° SSE 04:08:33 87° W 04:13:01 10° NNW visible
10 Apr ? 03:31:50 10° SE 03:35:52 36° ENE 03:39:57 10° N visible
10 Apr ? 05:13:20 10° WSW 05:15:20 13° W 05:17:21 10° WNW visible
11 Apr ? 03:00:44 10° ESE 03:03:20 15° ENE 03:05:56 10° NNE visible
11 Apr ? 04:38:27 10° SSW 04:42:22 32° W 04:46:22 10° NW visible
12 Apr ? 04:05:08 10° S 04:09:32 83° WSW 04:14:03 10° NNW visible
13 Apr ? 03:32:46 10° SE 03:36:51 38° ENE 03:41:02 10° N visible
